| time (UTC) | temp F | wind direction | speed knots | gust knots | rain 1hr in | rain 24hr in | rain mn in | humidity % | barometer mb |
| 20260503050052 | 47 | 95 | 3.5 | 7.0 | 0.02 | 0.29 | 0.13 | 95 | 1014.6 |
| 20260503045552 | 47 | 140 | 5.2 | 6.1 | 0.03 | 0.24 | 0.13 | 95 | 1014.6 |
| 20260503045052 | 47 | 89 | 6.1 | 11.3 | 0.03 | 0.24 | 0.13 | 95 | 1014.6 |
| 20260503044552 | 47 | 61 | 4.3 | 6.1 | 0.03 | 0.24 | 0.13 | 95 | 1014.6 |
| 20260503044052 | 47 | 120 | 4.3 | 7.0 | 0.03 | 0.24 | 0.13 | 95 | 1014.4 |
| 20260503043552 | 47 | 120 | 4.3 | 7.0 | 0.03 | 0.24 | 0.12 | 95 | 1014.5 |
| 20260503043052 | 47 | 95 | 7.0 | 7.8 | 0.03 | 0.24 | 0.12 | 95 | 1014.4 |
| 20260503042552 | 47 | 74 | 6.1 | 9.6 | 0.03 | 0.23 | 0.12 | 95 | 1014.6 |
| 20260503042052 | 47 | 74 | 6.1 | 9.6 | 0.04 | 0.24 | 0.12 | 95 | 1014.5 |
| 20260503041552 | 47 | 16 | 3.5 | 6.1 | 0.04 | 0.24 | 0.11 | 95 | 1014.7 |
| 20260503041052 | 47 | 0.0 | 0.0 | 0.03 | 0.23 | 0.11 | 95 | 1014.5 | |
| 20260503040552 | 47 | 0.0 | 0.0 | 0.04 | 0.24 | 0.11 | 95 | 1014.5 | |
| 20260503040054 | 47 | 79 | 7.0 | 8.7 | 0.04 | 0.24 | 0.11 | 95 | 1014.6 |
| 20260503035552 | 47 | 79 | 7.0 | 8.7 | 0.04 | 0.16 | 0.10 | 95 | 1014.3 |
| 20260503035052 | 47 | 0.0 | 0.0 | 0.04 | 0.16 | 0.10 | 95 | 1014.8 | |
| 20260503034552 | 47 | 82 | 4.3 | 5.2 | 0.04 | 0.16 | 0.10 | 95 | 1014.6 |
| 20260503034052 | 47 | 82 | 4.3 | 5.2 | 0.04 | 0.16 | 0.09 | 95 | 1014.5 |
| 20260503033551 | 47 | 69 | 5.2 | 7.0 | 0.04 | 0.16 | 0.09 | 95 | 1014.7 |
| 20260503033051 | 47 | 69 | 5.2 | 7.0 | 0.04 | 0.16 | 0.09 | 95 | 1014.9 |
| 20260503032552 | 47 | 72 | 7.0 | 8.7 | 0.04 | 0.16 | 0.08 | 95 | 1014.6 |
| 20260503032051 | 47 | 72 | 7.0 | 8.7 | 0.04 | 0.16 | 0.08 | 95 | 1014.7 |
| 20260503031551 | 47 | 112 | 2.6 | 5.2 | 0.05 | 0.16 | 0.08 | 95 | 1014.7 |
| 20260503031051 | 47 | 112 | 2.6 | 5.2 | 0.05 | 0.16 | 0.08 | 95 | 1014.6 |
| 20260503030551 | 47 | 0.0 | 0.0 | 0.05 | 0.16 | 0.07 | 95 | 1014.5 | |
| 20260503030051 | 47 | 0.0 | 0.0 | 0.05 | 0.17 | 0.07 | 95 | 1014.5 | |
| 20260503025551 | 47 | 98 | 3.5 | 6.1 | 0.05 | 0.07 | 0.07 | 95 | 1014.4 |
| 20260503025051 | 47 | 98 | 3.5 | 6.1 | 0.04 | 0.07 | 0.06 | 95 | 1014.7 |
| 20260503024551 | 47 | 115 | 5.2 | 6.1 | 0.04 | 0.07 | 0.06 | 95 | 1014.5 |
| 20260503024051 | 47 | 119 | 7.0 | 8.7 | 0.03 | 0.07 | 0.05 | 95 | 1014.6 |
| 20260503023551 | 47 | 89 | 3.5 | 5.2 | 0.03 | 0.07 | 0.05 | 95 | 1014.5 |
| 20260503023051 | 48 | 356 | 5.2 | 7.8 | 0.02 | 0.07 | 0.04 | 95 | 1014.7 |
| 20260503022551 | 48 | 108 | 4.3 | 9.6 | 0.02 | 0.06 | 0.04 | 95 | 1014.7 |
| 20260503022051 | 48 | 84 | 6.1 | 7.0 | 0.02 | 0.06 | 0.03 | 95 | 1014.5 |
| 20260503021551 | 48 | 163 | 3.5 | 7.8 | 0.01 | 0.06 | 0.03 | 94 | 1014.8 |
| 20260503021051 | 48 | 94 | 6.1 | 7.8 | 0.01 | 0.05 | 0.02 | 95 | 1014.3 |
| 20260503020551 | 48 | 61 | 2.6 | 3.5 | 0.00 | 0.05 | 0.02 | 94 | 1014.8 |
| 20260503020052 | 48 | 94 | 7.8 | 9.6 | 0.00 | 0.05 | 0.02 | 94 | 1014.6 |
| 20260503015551 | 48 | 79 | 2.6 | 9.6 | 0.00 | 0.04 | 0.02 | 94 | 1014.7 |
| 20260503015051 | 48 | 84 | 3.5 | 6.1 | 0.00 | 0.04 | 0.02 | 94 | 1014.6 |
| 20260503014551 | 48 | 54 | 5.2 | 7.0 | 0.00 | 0.04 | 0.02 | 94 | 1014.6 |
| 20260503014051 | 48 | 176 | 4.3 | 6.1 | 0.00 | 0.04 | 0.02 | 94 | 1014.5 |
| 20260503013551 | 48 | 91 | 4.3 | 7.0 | 0.00 | 0.04 | 0.02 | 94 | 1014.5 |
| 20260503013051 | 48 | 91 | 4.3 | 7.0 | 0.00 | 0.04 | 0.02 | 94 | 1014.8 |
| 20260503012551 | 48 | 91 | 4.3 | 6.1 | 0.01 | 0.04 | 0.02 | 94 | 1014.6 |
| 20260503012051 | 48 | 91 | 4.3 | 6.1 | 0.01 | 0.04 | 0.02 | 94 | 1014.7 |
| 20260503011551 | 48 | 96 | 4.3 | 6.1 | 0.01 | 0.04 | 0.02 | 94 | 1014.8 |
| 20260503011051 | 48 | 306 | 5.2 | 8.7 | 0.02 | 0.05 | 0.02 | 94 | 1014.7 |
| 20260503010551 | 48 | 70 | 2.6 | 3.5 | 0.02 | 0.05 | 0.02 | 94 | 1015.0 |
| 20260503010051 | 48 | 86 | 3.5 | 6.1 | 0.02 | 0.05 | 0.02 | 94 | 1014.8 |
| 20260503005551 | 48 | 101 | 5.2 | 7.0 | 0.02 | 0.02 | 0.02 | 94 | 1014.6 |
| 20260503005051 | 48 | 3 | 5.2 | 9.6 | 0.02 | 0.02 | 0.02 | 94 | 1014.8 |
| 20260503004551 | 48 | 0.0 | 0.0 | 0.02 | 0.02 | 0.02 | 94 | 1014.9 | |
| 20260503004051 | 48 | 164 | 5.2 | 6.1 | 0.01 | 0.02 | 0.01 | 94 | 1014.7 |
| 20260503003551 | 48 | 164 | 5.2 | 11.3 | 0.01 | 0.02 | 0.01 | 94 | 1014.9 |
| 20260503003051 | 48 | 50 | 3.5 | 5.2 | 0.01 | 0.02 | 0.01 | 94 | 1014.9 |
| 20260503002551 | 48 | 91 | 5.2 | 7.8 | 0.00 | 0.01 | 0.00 | 94 | 1015.0 |
| 20260503002051 | 48 | 73 | 7.8 | 11.3 | 0.00 | 0.01 | 0.00 | 94 | 1015.1 |
| 20260503001551 | 48 | 83 | 7.0 | 8.7 | 0.00 | 0.01 | 0.00 | 94 | 1015.0 |
| 20260503001051 | 48 | 93 | 7.0 | 9.6 | 0.00 | 0.01 | 0.00 | 93 | 1015.1 |
| 20260503000551 | 48 | 0.0 | 0.0 | 0.00 | 0.01 | 0.00 | 93 | 1015.1 | |
| 20260503000053 | 48 | 81 | 7.8 | 11.3 | 0.00 | 0.01 | 0.00 | 93 | 1015.2 |
| 20260502235551 | 48 | 81 | 7.8 | 11.3 | 0.00 | 0.01 | 0.00 | 93 | 1014.9 |
| 20260502235051 | 48 | 69 | 4.3 | 7.0 | 0.00 | 0.01 | 0.00 | 93 | 1015.1 |
| 20260502234551 | 48 | 0.0 | 0.0 | 0.00 | 0.01 | 0.00 | 93 | 1015.1 | |
| 20260502234051 | 48 | 0.0 | 0.0 | 0.00 | 0.01 | 0.00 | 93 | 1015.1 | |
| 20260502233551 | 48 | 74 | 7.0 | 8.7 | 0.00 | 0.01 | 0.00 | 93 | 1015.0 |
| 20260502233051 | 48 | 74 | 7.0 | 8.7 | 0.00 | 0.01 | 0.00 | 93 | 1015.2 |
| 20260502232551 | 48 | 167 | 6.1 | 9.6 | 0.00 | 0.01 | 0.00 | 93 | 1015.1 |
| 20260502232051 | 49 | 77 | 5.2 | 7.8 | 0.00 | 0.01 | 0.00 | 93 | 1015.3 |
| 20260502231551 | 49 | 111 | 4.3 | 6.1 | 0.00 | 0.01 | 0.00 | 93 | 1015.3 |
| 20260502231051 | 49 | 111 | 4.3 | 6.1 | 0.00 | 0.01 | 0.00 | 92 | 1015.5 |
| 20260502230551 | 49 | 84 | 6.1 | 8.7 | 0.00 | 0.01 | 0.00 | 92 | 1015.4 |
| 20260502230051 | 49 | 114 | 5.2 | 7.0 | 0.00 | 0.01 | 0.00 | 92 | 1015.2 |
| 20260502225551 | 49 | 73 | 7.0 | 7.8 | 0.00 | 0.01 | 0.00 | 92 | 1015.5 |
| 20260502225051 | 49 | 0.0 | 0.0 | 0.00 | 0.01 | 0.00 | 92 | 1015.2 | |
| 20260502224551 | 49 | 55 | 5.2 | 6.1 | 0.00 | 0.01 | 0.00 | 92 | 1015.4 |
| 20260502224051 | 49 | 55 | 5.2 | 6.1 | 0.00 | 0.01 | 0.00 | 92 | 1015.4 |
| 20260502223551 | 49 | 106 | 6.1 | 11.3 | 0.00 | 0.01 | 0.00 | 91 | 1015.3 |
| 20260502223051 | 49 | 106 | 6.1 | 11.3 | 0.00 | 0.01 | 0.00 | 91 | 1015.3 |
| 20260502222551 | 49 | 198 | 3.5 | 5.2 | 0.00 | 0.01 | 0.00 | 91 | 1015.3 |
| 20260502222051 | 49 | 99 | 3.5 | 6.1 | 0.00 | 0.01 | 0.00 | 91 | 1015.3 |
| 20260502221551 | 49 | 0.0 | 0.0 | 0.00 | 0.01 | 0.00 | 91 | 1015.1 | |
| 20260502221051 | 49 | 82 | 8.7 | 11.3 | 0.00 | 0.01 | 0.00 | 91 | 1015.0 |
| 20260502220551 | 49 | 82 | 8.7 | 11.3 | 0.00 | 0.01 | 0.00 | 91 | 1015.1 |
| 20260502220051 | 49 | 112 | 7.0 | 7.8 | 0.00 | 0.01 | 0.00 | 91 | 1015.2 |
| 20260502215551 | 49 | 92 | 4.3 | 5.2 | 0.00 | 0.04 | 0.00 | 91 | 1015.2 |
| 20260502215051 | 49 | 92 | 7.8 | 11.3 | 0.00 | 0.04 | 0.00 | 90 | 1015.0 |
| 20260502214551 | 49 | 78 | 7.8 | 8.7 | 0.00 | 0.04 | 0.00 | 90 | 1015.2 |
| 20260502214051 | 49 | 78 | 7.8 | 8.7 | 0.00 | 0.04 | 0.00 | 90 | 1015.3 |
| 20260502213551 | 49 | 73 | 6.1 | 11.3 | 0.00 | 0.04 | 0.00 | 90 | 1015.0 |
| 20260502213051 | 49 | 111 | 7.0 | 9.6 | 0.00 | 0.04 | 0.00 | 90 | 1015.5 |
| 20260502212551 | 49 | 0.0 | 0.0 | 0.00 | 0.04 | 0.00 | 90 | 1015.4 | |
| 20260502212051 | 49 | 36 | 3.5 | 6.1 | 0.00 | 0.04 | 0.00 | 90 | 1015.2 |
| 20260502211551 | 50 | 36 | 3.5 | 6.1 | 0.00 | 0.04 | 0.00 | 90 | 1015.4 |
| 20260502211051 | 49 | 74 | 6.1 | 8.7 | 0.00 | 0.04 | 0.00 | 90 | 1015.4 |
| 20260502210551 | 49 | 66 | 7.0 | 8.7 | 0.00 | 0.04 | 0.00 | 90 | 1015.4 |
| 20260502210051 | 49 | 0.0 | 0.0 | 0.00 | 0.04 | 0.00 | 90 | 1015.4 | |
| 20260502205551 | 50 | 0.0 | 0.0 | 0.00 | 0.11 | 0.00 | 89 | 1015.2 | |
| 20260502205051 | 50 | 0.0 | 0.0 | 0.00 | 0.11 | 0.00 | 89 | 1015.2 | |
| 20260502204550 | 50 | 0.0 | 0.0 | 0.00 | 0.11 | 0.00 | 89 | 1015.2 | |
| 20260502204050 | 50 | 0.0 | 0.0 | 0.00 | 0.11 | 0.00 | 89 | 1015.1 | |
| 20260502203550 | 50 | 0.0 | 0.0 | 0.00 | 0.11 | 0.00 | 88 | 1015.3 | |
| 20260502203050 | 50 | 0.0 | 0.0 | 0.00 | 0.11 | 0.00 | 88 | 1015.0 | |
| 20260502202550 | 50 | 0.0 | 0.0 | 0.00 | 0.11 | 0.00 | 88 | 1015.0 | |
| 20260502202050 | 50 | 0.0 | 0.0 | 0.00 | 0.11 | 0.00 | 88 | 1015.0 | |
| 20260502201550 | 50 | 0.0 | 0.0 | 0.00 | 0.11 | 0.00 | 88 | 1015.2 | |
| 20260502201050 | 50 | 0.0 | 0.0 | 0.00 | 0.11 | 0.00 | 87 | 1015.1 | |
| 20260502200550 | 50 | 61 | 2.6 | 3.5 | 0.00 | 0.11 | 0.00 | 87 | 1015.0 |
| 20260502200050 | 50 | 61 | 2.6 | 3.5 | 0.00 | 0.11 | 0.00 | 86 | 1015.0 |
| 20260502195550 | 50 | 0.0 | 0.0 | 0.00 | 0.11 | 0.00 | 86 | 1015.0 | |
| 20260502195050 | 50 | 0.0 | 0.0 | 0.00 | 0.11 | 0.00 | 85 | 1015.0 | |
| 20260502194550 | 50 | 0.0 | 0.0 | 0.00 | 0.11 | 0.00 | 85 | 1014.9 | |
| 20260502194050 | 50 | 0.0 | 0.0 | 0.00 | 0.11 | 0.00 | 85 | 1014.8 | |
| 20260502193550 | 51 | 73 | 5.2 | 7.0 | 0.00 | 0.11 | 0.00 | 85 | 1014.9 |
| 20260502193050 | 51 | 73 | 5.2 | 7.0 | 0.00 | 0.11 | 0.00 | 84 | 1014.7 |
| 20260502192550 | 51 | 69 | 6.1 | 7.8 | 0.00 | 0.11 | 0.00 | 84 | 1014.6 |
| 20260502192050 | 51 | 0.0 | 0.0 | 0.00 | 0.11 | 0.00 | 84 | 1014.5 | |
| 20260502191550 | 51 | 0.0 | 0.0 | 0.00 | 0.11 | 0.00 | 84 | 1014.4 | |
| 20260502191050 | 51 | 0.0 | 0.0 | 0.00 | 0.11 | 0.00 | 84 | 1014.4 | |
| 20260502190550 | 51 | 159 | 4.3 | 5.2 | 0.00 | 0.11 | 0.00 | 84 | 1014.1 |
| 20260502190050 | 52 | 159 | 4.3 | 5.2 | 0.00 | 0.11 | 0.00 | 84 | 1014.2 |
| 20260502185550 | 52 | 136 | 1.7 | 1.7 | 0.00 | 0.12 | 0.00 | 83 | 1014.2 |
| 20260502185050 | 52 | 105 | 4.3 | 7.0 | 0.00 | 0.12 | 0.00 | 83 | 1014.4 |
| 20260502184550 | 52 | 38 | 4.3 | 6.1 | 0.00 | 0.12 | 0.00 | 83 | 1014.3 |
| 20260502184050 | 53 | 95 | 7.0 | 7.8 | 0.00 | 0.12 | 0.00 | 82 | 1014.1 |
| 20260502183550 | 53 | 47 | 2.6 | 5.2 | 0.00 | 0.12 | 0.00 | 81 | 1014.0 |
| 20260502183050 | 53 | 155 | 2.6 | 5.2 | 0.00 | 0.12 | 0.00 | 81 | 1014.0 |
| 20260502182550 | 54 | 155 | 2.6 | 5.2 | 0.00 | 0.12 | 0.00 | 80 | 1014.0 |
| 20260502182050 | 54 | 72 | 3.5 | 5.2 | 0.00 | 0.12 | 0.00 | 79 | 1013.9 |
| 20260502181550 | 55 | 45 | 0.9 | 1.7 | 0.00 | 0.12 | 0.00 | 78 | 1014.1 |
| 20260502181050 | 55 | 45 | 0.9 | 3.5 | 0.00 | 0.12 | 0.00 | 78 | 1014.0 |
| 20260502180550 | 56 | 92 | 2.6 | 5.2 | 0.00 | 0.12 | 0.00 | 77 | 1014.1 |
| 20260502164050 | 62 | 201 | 1.7 | 2.6 | 0.00 | 0.32 | 0.00 | 71 | 1013.4 |
| 20260502163550 | 62 | 152 | 0.9 | 1.7 | 0.00 | 0.32 | 0.00 | 71 | 1013.3 |
| 20260502163050 | 63 | 248 | 1.7 | 1.7 | 0.00 | 0.32 | 0.00 | 70 | 1013.4 |
| 20260502162550 | 63 | 312 | 1.7 | 1.7 | 0.00 | 0.32 | 0.00 | 71 | 1013.4 |
| 20260502162050 | 63 | 214 | 1.7 | 2.6 | 0.00 | 0.32 | 0.00 | 71 | 1013.4 |
| 20260502161550 | 63 | 146 | 0.9 | 1.7 | 0.00 | 0.32 | 0.00 | 70 | 1013.3 |
| 20260502161050 | 63 | 143 | 1.7 | 3.5 | 0.00 | 0.32 | 0.00 | 70 | 1013.7 |
| 20260502160550 | 63 | 244 | 1.7 | 1.7 | 0.00 | 0.32 | 0.00 | 70 | 1013.4 |
| 20260502152050 | 63 | 81 | 0.9 | 1.7 | 0.00 | 0.32 | 0.00 | 73 | 1013.1 |
| 20260502151550 | 63 | 153 | 0.9 | 0.9 | 0.00 | 0.32 | 0.00 | 73 | 1013.4 |
| 20260502151050 | 63 | 161 | 0.0 | 0.0 | 0.00 | 0.32 | 0.00 | 73 | 1013.2 |
| 20260502150552 | 63 | 232 | 0.9 | 1.7 | 0.00 | 0.32 | 0.00 | 73 | 1013.4 |
| 20260502130549 | 63 | 150 | 0.0 | 0.9 | 0.00 | 0.35 | 0.00 | 74 | 1013.8 |
| 20260502123549 | 63 | 154 | 1.7 | 1.7 | 0.00 | 0.35 | 0.00 | 70 | 1014.1 |
| 20260502123049 | 64 | 75 | 1.7 | 1.7 | 0.00 | 0.35 | 0.00 | 70 | 1014.1 |
| 20260502122549 | 64 | 194 | 0.9 | 0.9 | 0.00 | 0.35 | 0.00 | 70 | 1014.0 |
| 20260502122049 | 64 | 194 | 0.9 | 0.9 | 0.00 | 0.35 | 0.00 | 68 | 1013.8 |
| 20260502121549 | 65 | 107 | 0.9 | 1.7 | 0.00 | 0.35 | 0.00 | 68 | 1013.8 |
| 20260502121049 | 66 | 188 | 0.0 | 0.9 | 0.00 | 0.35 | 0.00 | 66 | 1013.9 |
| 20260502120549 | 67 | 156 | 0.9 | 1.7 | 0.00 | 0.35 | 0.00 | 65 | 1014.0 |
| 20260502115549 | 71 | 180 | 0.9 | 2.6 | 0.00 | 0.35 | 0.00 | 65 | 1014.0 |
| 20260502115049 | 71 | 168 | 0.9 | 1.7 | 0.00 | 0.35 | 0.00 | 65 | 1014.2 |
| 20260502114049 | 71 | 192 | 0.0 | 0.9 | 0.00 | 0.35 | 0.00 | 68 | 1014.2 |
| 20260502113549 | 70 | 192 | 0.0 | 0.9 | 0.00 | 0.35 | 0.00 | 70 | 1014.0 |
| 20260502113049 | 69 | 24 | 0.0 | 0.9 | 0.00 | 0.35 | 0.00 | 71 | 1014.3 |
| 20260502112549 | 68 | 177 | 0.9 | 2.6 | 0.00 | 0.35 | 0.00 | 73 | 1014.1 |
| 20260502112049 | 67 | 290 | 1.7 | 1.7 | 0.00 | 0.35 | 0.00 | 74 | 1014.3 |
| 20260502111549 | 65 | 37 | 0.9 | 1.7 | 0.00 | 0.35 | 0.00 | 74 | 1014.2 |
| 20260502111049 | 64 | 204 | 1.7 | 2.6 | 0.00 | 0.35 | 0.00 | 75 | 1014.1 |
| 20260502110549 | 64 | 296 | 1.7 | 2.6 | 0.00 | 0.35 | 0.00 | 75 | 1014.2 |
| 20260502110049 | 64 | 296 | 1.7 | 2.6 | 0.00 | 0.35 | 0.00 | 75 | 1014.3 |
| 20260502105549 | 64 | 185 | 0.9 | 0.9 | 0.00 | 0.35 | 0.00 | 75 | 1014.3 |
| 20260502105049 | 64 | 187 | 0.0 | 0.9 | 0.00 | 0.35 | 0.00 | 76 | 1014.4 |
| 20260502104549 | 64 | 212 | 1.7 | 2.6 | 0.00 | 0.35 | 0.00 | 75 | 1014.3 |
| 20260502104049 | 63 | 295 | 2.6 | 5.2 | 0.00 | 0.35 | 0.00 | 75 | 1014.4 |
| 20260502103549 | 63 | 273 | 0.9 | 1.7 | 0.00 | 0.35 | 0.00 | 75 | 1014.4 |
| 20260502103049 | 64 | 297 | 0.9 | 1.7 | 0.00 | 0.35 | 0.00 | 76 | 1014.4 |
| 20260502102549 | 64 | 91 | 0.9 | 0.9 | 0.00 | 0.35 | 0.00 | 77 | 1014.6 |
| 20260502102049 | 64 | 329 | 0.9 | 2.6 | 0.00 | 0.35 | 0.00 | 77 | 1014.5 |
| 20260502101049 | 63 | 278 | 1.7 | 2.6 | 0.00 | 0.35 | 0.00 | 78 | 1014.5 |
| 20260502100549 | 62 | 168 | 1.7 | 1.7 | 0.00 | 0.35 | 0.00 | 77 | 1014.7 |
| 20260502091049 | 61 | 186 | 1.7 | 1.7 | 0.00 | 0.35 | 0.00 | 81 | 1014.4 |
| 20260502090549 | 61 | 164 | 1.7 | 1.7 | 0.00 | 0.35 | 0.00 | 82 | 1014.4 |
| 20260502071048 | 55 | 250 | 0.0 | 0.9 | 0.00 | 0.35 | 0.00 | 93 | 1014.8 |
| 20260502070548 | 54 | 250 | 0.0 | 0.9 | 0.00 | 0.35 | 0.00 | 93 | 1014.7 |
| 20260502070049 | 54 | 132 | 0.9 | 0.9 | 0.00 | 0.35 | 0.00 | 93 | 1014.7 |
| 20260502065548 | 54 | 9 | 0.9 | 1.7 | 0.00 | 0.34 | 0.00 | 93 | 1014.7 |
| 20260502065048 | 54 | 26 | 0.9 | 0.9 | 0.00 | 0.34 | 0.00 | 94 | 1014.7 |
| 20260502064548 | 54 | 46 | 0.9 | 0.9 | 0.00 | 0.34 | 0.00 | 94 | 1014.7 |
| 20260502064048 | 53 | 197 | 0.9 | 0.9 | 0.00 | 0.34 | 0.00 | 94 | 1014.8 |
| 20260502063548 | 53 | 152 | 0.0 | 0.9 | 0.00 | 0.34 | 0.00 | 94 | 1014.8 |
| 20260502063048 | 52 | 152 | 0.0 | 0.9 | 0.00 | 0.34 | 0.00 | 94 | 1014.6 |
| 20260502062548 | 52 | 247 | 0.9 | 0.9 | 0.00 | 0.34 | 0.00 | 94 | 1014.7 |
| 20260502062048 | 51 | 247 | 0.9 | 0.9 | 0.00 | 0.34 | 0.00 | 94 | 1014.7 |
| 20260502061548 | 50 | 193 | 0.9 | 1.7 | 0.00 | 0.34 | 0.00 | 94 | 1014.9 |
| 20260502061048 | 50 | 81 | 0.9 | 0.9 | 0.00 | 0.34 | 0.00 | 94 | 1014.6 |
| 20260502060548 | 50 | 108 | 0.9 | 0.9 | 0.00 | 0.34 | 0.00 | 94 | 1014.5 |
| 20260502060048 | 49 | 140 | 0.9 | 0.9 | 0.00 | 0.34 | 0.00 | 94 | 1014.5 |
| 20260502055548 | 49 | 140 | 0.9 | 0.9 | 0.00 | 0.34 | 0.00 | 94 | 1014.5 |
| 20260502055048 | 49 | 0.0 | 0.0 | 0.00 | 0.34 | 0.00 | 94 | 1014.4 | |
| 20260502054548 | 49 | 0.0 | 0.0 | 0.00 | 0.34 | 0.00 | 94 | 1014.4 | |
| 20260502054048 | 49 | 0.0 | 0.0 | 0.00 | 0.34 | 0.00 | 94 | 1014.5 | |
| 20260502053548 | 49 | 229 | 1.7 | 2.6 | 0.00 | 0.34 | 0.00 | 94 | 1014.3 |
| 20260502053048 | 49 | 229 | 1.7 | 2.6 | 0.00 | 0.34 | 0.00 | 94 | 1014.4 |
| 20260502052548 | 49 | 121 | 0.9 | 0.9 | 0.00 | 0.34 | 0.00 | 94 | 1014.3 |
| 20260502052048 | 49 | 121 | 0.9 | 0.9 | 0.00 | 0.34 | 0.00 | 94 | 1014.3 |
| 20260502051548 | 49 | 92 | 1.7 | 3.5 | 0.00 | 0.34 | 0.00 | 94 | 1014.6 |
| 20260502051048 | 49 | 92 | 1.7 | 3.5 | 0.00 | 0.34 | 0.00 | 94 | 1014.5 |
| 20260502050548 | 49 | 220 | 0.9 | 1.7 | 0.00 | 0.34 | 0.00 | 94 | 1014.2 |